This is the latest recevied weather packets stored in our database for station/object IK1AMC-3. If no packets are shown the sender has not sent any weather packets the latest 1 day(s).
| Time | Temp. | Humidity | Pressure | Rain* | Wind** | Luminosity | Snow |
|---|---|---|---|---|---|---|---|
| 1777726565 | 22.22° C | 30% | 1022.7 hPa | - | - | - | - |
| 1777725363 | 22.78° C | 30% | 1023 hPa | - | - | - | - |
| 1777724162 | 22.22° C | 33% | 1023.1 hPa | - | - | - | - |
| 1777722961 | 22.22° C | 34% | 1023.4 hPa | - | - | - | - |
| 1777721759 | 22.22° C | 34% | 1023.6 hPa | - | - | - | - |
| 1777720558 | 22.22° C | 33% | 1023.8 hPa | - | - | - | - |
| 1777719357 | 21.11° C | 38% | 1024 hPa | - | - | - | - |
| 1777718156 | 21.11° C | 40% | 1024.2 hPa | - | - | - | - |
| 1777716955 | 21.11° C | 45% | 1024.6 hPa | - | - | - | - |
| 1777715753 | 21.11° C | 37% | 1024.8 hPa | - | - | - | - |
| 1777714552 | 20.56° C | 48% | 1025.1 hPa | - | - | - | - |
| 1777713350 | 20° C | 46% | 1025.2 hPa | - | - | - | - |
| 1777712149 | 20° C | 50% | 1025.4 hPa | - | - | - | - |
| 1777711194 | 20° C | 51% | 1025.5 hPa | - | - | - | - |
| 1777709993 | 18.89° C | 54% | 1025.4 hPa | - | - | - | - |
| 1777708792 | 18.89° C | 50% | 1025.4 hPa | - | - | - | - |
| 1777707590 | 18.33° C | 54% | 1025.4 hPa | - | - | - | - |
| 1777706389 | 18.33° C | 55% | 1025.3 hPa | - | - | - | - |
| 1777705188 | 17.78° C | 52% | 1025.5 hPa | - | - | - | - |
| 1777703987 | 17.22° C | 54% | 1025.5 hPa | - | - | - | - |
| 1777702785 | 16.11° C | 59% | 1025.5 hPa | - | - | - | - |
* Rain since midnight (hover to see other rain measurements)
** Current wind speed in m/s (hover to see current wind gust speed)